Погода в Тузле

Босния и Герцеговина     44°32′04″N   18°41′32″E
темп.,
°C
ветер,
м/с
пор.,
м/с
влажн.,
%
обл.,
%
осадки,
мм/ч
давл.,
гПа
погр.,
м
19 сентября, вс
вс1923:00+15всв115940 0.0 101516
02:00+14ююв116199 0.1 101511
05:00+15в115973 0.0 101411
08:00+16ю116236 0.0 1014114
11:00+22в224488 0.0 10131099
14:00+25ссв024175 0.1 10121827
17:00+24всв114265 0.0 10101390
20:00+18всв12608 0.0 101013
20 сентября, пн
пн2023:00+15ююз118092 0.2 101111
02:00+14з118283 0.3 101111
05:00+14ссз248596 0.1 1012148
08:00+13з129399 0.6 1014158
11:00+16ссз3379100 0.0 1016563
14:00+15с3378100 0.1 1017671
17:00+14с2383100 0.1 1018715
20:00+12ссз1190100 0.2 1020218
21 сентября, вт
вт2123:00+12сз1189100 0.0 1021180
02:00+11зсз1189100 0.0 102253
05:00+11сз1189100 0.0 102234
08:00+12с118098 0.0 1024218
11:00+16ссв224799 0.0 10241146
14:00+18с433810 0.0 10231589
17:00+17с43405 0.0 10231271
20:00+11сз11595 0.0 102510
22 сентября, ср
ср2223:00+9юз11675 0.0 102510
02:00+7зюз11735 0.0 102510
05:00+7юз2175100 0.0 102411
08:00+10з1259100 0.0 1024104
11:00+14с3343100 0.0 10241106
14:00+11ссв2260100 0.1 1023475
17:00+12зсз3461100 0.0 10231000
20:00+10з2274100 0.1 102329
23 сентября, чт
чт2323:00+9з2277100 0.1 102224
02:00+9з117897 0.1 102213
05:00+8з228174 0.1 102258
08:00+8з22823 0.2 1022121
11:00+14сз354469 0.0 10221709
14:00+16ссз443919 0.0 10201814
17:00+16ссз33381 0.0 10191725
20:00+10ююв11580 0.0 102010